�N����,����,�~����,�C��,���x,�C��,����,���ϕ���,�ő�u�ԕ���,�ő厞����,���˗�,�I�_���x,�n�����x,�ő啗���N��,DTYPE
"17/04/13","00:10",0.0,4.3,92.8,1008.6,302.1,1.8,2.7,328.0,0.00,3.3,10.6,"00:01:12",1
"17/04/13","00:20",0.0,4.3,93.2,1008.3,281.8,1.7,2.6,261.9,0.00,3.3,10.3,"00:13:28",1
"17/04/13","00:30",0.0,4.3,93.2,1008.6,302.8,1.8,3.6,321.2,0.00,3.3,10.5,"00:22:24",1
"17/04/13","00:40",0.0,4.3,93.5,1008.3,296.3,2.2,3.7,313.0,0.00,3.4,10.5,"00:30:02",1
"17/04/13","00:50",0.0,4.5,93.7,1008.3,311.6,2.7,4.0,331.2,0.00,3.6,10.2,"00:40:08",1
"17/04/13","01:00",0.0,5.0,93.6,1008.1,318.2,3.4,4.8,321.1,0.00,4.1,10.2,"00:50:40",1
"17/04/13","01:10",0.0,5.1,92.5,1008.3,309.0,2.3,4.0,322.8,0.00,4.0,10.3,"01:01:52",1
"17/04/13","01:20",0.0,5.1,92.1,1008.3,308.5,3.0,4.7,336.6,0.00,4.0,10.4,"01:19:44",1
"17/04/13","01:30",0.0,5.1,91.1,1008.3,317.7,3.5,5.2,316.1,0.00,3.8,10.2,"01:20:08",1
"17/04/13","01:40",0.0,4.9,90.1,1008.8,319.4,3.6,5.5,324.9,0.00,3.5,9.9,"01:36:08",1
"17/04/13","01:50",0.0,4.7,89.6,1008.3,305.1,2.7,4.4,308.1,0.00,3.2,10.1,"01:42:32",1
"17/04/13","02:00",0.0,4.4,90.0,1008.6,311.8,2.2,2.9,328.2,0.00,2.9,10.1,"01:56:40",1
"17/04/13","02:10",0.0,4.2,90.8,1008.3,338.1,2.2,3.9,333.8,0.00,2.9,10.1,"02:05:36",1
"17/04/13","02:20",0.0,4.1,91.5,1008.6,328.4,2.3,3.7,309.8,0.00,2.9,10.0,"02:13:12",1
"17/04/13","02:30",0.0,4.0,92.0,1008.3,323.1,2.2,3.6,330.8,0.00,2.9,10.0,"02:23:28",1
"17/04/13","02:40",0.0,4.0,91.9,1008.3,335.8,2.2,3.3,314.8,0.00,2.8,10.0,"02:30:32",1
"17/04/13","02:50",0.0,3.8,92.4,1008.6,331.4,2.2,4.1,337.0,0.00,2.7,9.7,"02:47:52",1
"17/04/13","03:00",0.0,3.7,92.4,1008.8,314.6,1.6,2.7,319.9,0.00,2.6,9.8,"02:55:28",1
"17/04/13","03:10",0.0,3.6,92.9,1008.8,316.1,2.0,4.1,327.0,0.00,2.6,10.0,"03:03:04",1
"17/04/13","03:20",0.0,3.9,93.1,1008.8,321.3,3.4,5.5,318.6,0.00,2.9,9.7,"03:17:04",1
"17/04/13","03:30",0.0,3.9,92.5,1008.8,318.9,3.0,4.8,312.2,0.00,2.8,9.7,"03:21:36",1
"17/04/13","03:40",0.0,3.8,92.7,1009.3,325.4,2.8,4.3,336.6,0.00,2.8,9.6,"03:35:36",1
"17/04/13","03:50",0.0,3.7,92.7,1008.8,313.9,2.8,4.4,327.2,0.00,2.7,9.6,"03:42:56",1
"17/04/13","04:00",0.0,3.5,93.0,1008.8,309.4,2.8,4.1,322.0,0.00,2.5,9.7,"03:53:52",1
"17/04/13","04:10",0.0,3.4,93.0,1009.0,298.8,2.6,4.2,317.6,0.00,2.4,9.6,"04:00:16",1
"17/04/13","04:20",0.0,3.3,92.9,1009.3,297.9,2.1,3.1,309.8,0.00,2.3,9.6,"04:17:04",1
"17/04/13","04:30",0.0,3.3,93.2,1009.3,331.7,1.7,3.4,316.7,0.00,2.3,9.5,"04:25:12",1
"17/04/13","04:40",0.0,3.1,93.2,1009.5,334.8,2.3,3.5,341.3,0.00,2.1,9.5,"04:37:28",1
"17/04/13","04:50",0.0,3.1,93.7,1009.3,327.8,2.3,3.7,337.8,0.00,2.2,9.5,"04:41:52",1
"17/04/13","05:00",0.0,3.1,93.5,1009.3,297.7,1.2,2.4,323.4,0.00,2.2,9.4,"04:51:36",1
"17/04/13","05:10",0.0,3.2,93.7,1009.5,320.7,2.8,5.4,316.8,0.00,2.3,9.5,"05:06:08",1
"17/04/13","05:20",0.0,2.9,93.2,1009.5,323.0,1.8,3.1,314.7,0.00,2.0,9.4,"05:13:44",1
"17/04/13","05:30",0.0,2.6,93.6,1009.5,310.2,1.8,2.8,340.9,0.00,1.7,9.4,"05:23:12",1
"17/04/13","05:40",0.0,2.4,94.3,1009.7,286.9,1.5,2.5,321.1,0.00,1.6,9.2,"05:37:04",1
"17/04/13","05:50",0.0,2.5,94.7,1009.0,290.1,2.0,3.3,310.2,0.00,1.8,9.1,"05:48:24",1
"17/04/13","06:00",0.0,2.4,94.8,1009.7,309.2,2.5,3.3,317.3,0.00,1.7,9.4,"05:52:24",1
"17/04/13","06:10",0.0,2.3,95.3,1009.7,312.1,2.6,2.9,311.3,0.00,1.7,9.1,"06:01:44",1
"17/04/13","06:20",0.0,2.6,95.9,1010.0,299.3,1.6,2.1,318.0,0.00,2.1,9.2,"06:10:08",1
"17/04/13","06:30",0.0,3.2,96.0,1009.7,302.6,1.5,2.1,312.2,0.01,2.7,9.2,"06:28:00",1
"17/04/13","06:40",0.0,3.8,95.7,1010.0,295.9,0.8,1.8,325.1,0.01,3.2,9.2,"06:30:02",1
"17/04/13","06:50",0.0,4.5,94.4,1010.2,305.9,0.8,1.6,312.2,0.02,3.7,9.1,"06:40:24",1
"17/04/13","07:00",0.0,4.8,90.9,1010.2,330.0,1.5,2.2,345.3,0.04,3.5,9.1,"06:55:12",1
"17/04/13","07:10",0.0,5.5,88.6,1010.2,314.8,1.6,2.4,321.9,0.07,3.8,9.0,"07:03:52",1
"17/04/13","07:20",0.0,6.2,86.4,1011.2,308.6,1.7,2.4,314.3,0.09,4.1,9.3,"07:14:40",1
"17/04/13","07:30",0.0,7.0,84.2,1010.9,279.5,0.7,1.8,308.0,0.11,4.6,9.3,"07:20:08",1
"17/04/13","07:40",0.0,7.3,82.7,1011.6,252.3,0.6,1.4,250.6,0.14,4.6,9.2,"07:30:02",1
"17/04/13","07:50",0.0,8.0,79.9,1011.6,268.5,0.7,1.6,252.9,0.16,4.8,9.4,"07:40:40",1
"17/04/13","08:00",0.0,8.6,76.9,1011.9,294.7,1.0,1.8,304.6,0.19,4.8,9.4,"07:54:00",1
"17/04/13","08:10",0.0,8.7,74.9,1012.3,36.8,0.6,1.4,285.0,0.22,4.5,9.6,"08:00:08",1
"17/04/13","08:20",0.0,9.2,72.9,1011.9,209.2,0.7,1.9,141.9,0.25,4.6,9.5,"08:12:40",1
"17/04/13","08:30",0.0,9.5,73.5,1011.9,178.1,1.0,2.1,119.0,0.28,5.0,9.7,"08:28:48",1
"17/04/13","08:40",0.0,10.0,72.6,1012.1,176.6,1.1,2.7,197.5,0.31,5.3,9.8,"08:39:44",1
"17/04/13","08:50",0.0,10.3,72.2,1012.1,183.5,1.0,2.2,128.3,0.33,5.6,9.9,"08:47:12",1
"17/04/13","09:00",0.0,10.5,72.1,1012.1,114.1,1.2,1.9,115.2,0.36,5.7,10.0,"08:50:48",1
"17/04/13","09:10",0.0,11.2,71.5,1011.6,200.7,1.1,2.5,203.0,0.38,6.3,10.1,"09:03:28",1
"17/04/13","09:20",0.0,11.2,70.6,1011.9,133.9,1.2,3.1,116.4,0.41,6.1,10.3,"09:12:00",1
"17/04/13","09:30",0.0,11.8,68.7,1011.4,172.7,1.3,3.1,193.6,0.43,6.3,10.6,"09:26:16",1
"17/04/13","09:40",0.0,12.1,67.9,1011.6,171.8,1.2,2.5,201.6,0.45,6.4,10.5,"09:32:32",1
"17/04/13","09:50",0.0,12.9,66.2,1011.6,158.3,1.5,4.1,125.2,0.47,6.8,10.8,"09:48:16",1
"17/04/13","10:00",0.0,12.9,64.1,1011.2,160.3,1.6,3.2,177.4,0.49,6.3,11.0,"09:50:24",1
"17/04/13","10:10",0.0,13.7,65.0,1011.4,98.2,1.7,3.4,120.5,0.50,7.3,11.2,"10:04:08",1
"17/04/13","10:20",0.0,13.6,62.0,1011.2,142.1,1.6,4.7,154.2,0.52,6.5,11.4,"10:11:04",1
"17/04/13","10:30",0.0,14.3,61.5,1011.2,205.4,1.1,2.7,139.2,0.54,7.0,11.6,"10:25:52",1
"17/04/13","10:40",0.0,15.0,62.1,1010.9,176.0,1.3,2.9,169.4,0.56,7.8,11.7,"10:30:16",1
"17/04/13","10:50",0.0,15.5,60.1,1010.4,197.6,1.7,3.9,218.3,0.57,7.8,11.9,"10:49:04",1
"17/04/13","11:00",0.0,15.9,53.9,1010.0,189.2,2.1,5.2,233.9,0.60,6.6,12.2,"10:58:08",1
"17/04/13","11:10",0.0,16.5,51.5,1010.2,206.4,2.3,4.8,222.2,0.57,6.5,12.5,"11:01:52",1
"17/04/13","11:20",0.0,17.0,46.8,1010.0,279.9,1.8,4.4,314.9,0.49,5.6,12.8,"11:17:52",1
"17/04/13","11:30",0.0,17.0,44.1,1010.0,267.0,2.1,4.8,316.6,0.42,4.7,13.0,"11:22:24",1
"17/04/13","11:40",0.0,16.4,42.7,1009.5,275.7,2.2,4.7,239.9,0.27,3.7,13.0,"11:30:24",1
"17/04/13","11:50",0.0,16.3,47.5,1010.0,281.9,2.3,5.2,229.9,0.20,5.2,13.0,"11:42:40",1
"17/04/13","12:00",0.0,17.0,44.3,1010.2,300.0,3.0,5.7,296.5,0.53,4.8,13.4,"11:51:52",1
"17/04/13","12:10",0.0,17.1,43.5,1009.5,301.9,2.6,5.8,331.2,0.47,4.6,13.4,"12:09:20",1
"17/04/13","12:20",0.0,18.1,41.1,1009.5,298.4,3.5,7.3,218.9,0.66,4.7,13.6,"12:17:52",1
"17/04/13","12:30",0.0,17.1,43.9,1009.7,328.3,2.7,5.8,343.8,0.27,4.8,13.7,"12:22:48",1
"17/04/13","12:40",0.0,16.7,44.7,1009.5,298.6,2.5,5.0,307.7,0.14,4.7,13.9,"12:35:20",1
"17/04/13","12:50",0.0,17.4,43.1,1009.3,312.5,3.0,6.0,343.5,0.26,4.8,13.8,"12:41:36",1
"17/04/13","13:00",0.0,17.4,42.6,1009.5,282.0,2.1,4.5,318.6,0.31,4.6,14.0,"12:58:16",1
"17/04/13","13:10",0.0,18.6,42.4,1009.5,279.0,2.3,4.7,326.5,0.58,5.6,14.0,"13:07:28",1
"17/04/13","13:20",0.0,17.9,42.0,1009.3,284.0,2.6,4.8,258.1,0.37,4.9,14.0,"13:11:04",1
"17/04/13","13:30",0.0,18.2,41.3,1009.3,314.5,3.2,5.8,330.0,0.41,4.9,14.2,"13:24:56",1
"17/04/13","13:40",0.0,17.7,44.4,1009.3,285.6,2.8,4.7,277.2,0.32,5.5,14.2,"13:32:40",1
"17/04/13","13:50",0.0,18.4,41.4,1009.0,286.6,2.5,5.1,284.7,0.59,5.1,14.5,"13:48:32",1
"17/04/13","14:00",0.0,17.9,39.8,1009.3,319.8,2.3,7.3,337.8,0.45,4.1,14.5,"13:57:52",1
"17/04/13","14:10",0.0,18.8,39.8,1009.0,281.6,2.3,5.2,251.8,0.51,4.9,14.7,"14:06:00",1
"17/04/13","14:20",0.0,18.7,38.3,1008.8,329.9,3.2,5.5,349.9,0.46,4.3,14.9,"14:15:12",1
"17/04/13","14:30",0.0,17.4,43.9,1009.0,344.9,2.7,5.5,346.9,0.16,5.0,14.7,"14:24:48",1
"17/04/13","14:40",0.0,19.2,39.8,1008.8,341.9,2.3,4.9,346.6,0.51,5.3,14.7,"14:34:00",1
"17/04/13","14:50",0.0,18.9,37.0,1008.6,7.7,2.0,4.4,8.2,0.49,3.9,14.9,"14:45:04",1
"17/04/13","15:00",0.0,17.6,40.8,1008.6,310.8,1.7,4.1,247.6,0.10,4.2,15.0,"14:58:24",1
"17/04/13","15:10",0.0,18.4,40.5,1008.8,328.4,1.7,3.9,345.4,0.23,4.8,14.8,"15:03:44",1
"17/04/13","15:20",0.0,18.2,36.2,1008.6,346.8,1.1,2.6,6.5,0.28,3.0,15.1,"15:10:48",1
"17/04/13","15:30",0.0,18.9,38.4,1008.8,343.0,2.3,5.1,333.3,0.34,4.5,14.8,"15:25:04",1
"17/04/13","15:40",0.0,19.1,40.2,1008.6,86.1,1.5,3.4,106.5,0.44,5.3,14.9,"15:36:48",1
"17/04/13","15:50",0.0,19.1,35.8,1008.6,292.7,1.6,3.6,335.2,0.37,3.7,15.1,"15:48:16",1
"17/04/13","16:00",0.0,19.3,34.9,1008.8,279.0,2.2,4.8,339.9,0.32,3.5,15.3,"15:58:40",1
"17/04/13","16:10",0.0,19.4,37.4,1008.6,60.0,1.8,5.2,48.6,0.28,4.5,15.1,"16:09:28",1
"17/04/13","16:20",0.0,18.4,38.4,1008.6,185.7,2.2,4.8,165.8,0.16,4.0,15.2,"16:13:04",1
"17/04/13","16:30",0.0,18.6,42.7,1008.3,199.7,2.1,5.0,176.0,0.25,5.7,15.1,"16:26:00",1
"17/04/13","16:40",0.0,18.0,43.4,1008.6,201.2,2.8,5.5,201.4,0.17,5.4,15.2,"16:32:56",1
"17/04/13","16:50",0.0,18.0,42.0,1008.6,251.9,2.6,4.5,196.8,0.16,4.9,15.1,"16:48:40",1
"17/04/13","17:00",0.0,17.6,45.1,1008.8,224.7,3.5,6.4,239.9,0.12,5.6,15.2,"16:56:24",1
"17/04/13","17:10",0.0,17.5,45.6,1008.8,251.8,2.7,5.0,238.3,0.11,5.7,14.9,"17:04:00",1
"17/04/13","17:20",0.0,17.0,46.3,1009.3,255.1,2.1,4.9,303.1,0.05,5.4,15.0,"17:10:56",1
"17/04/13","17:30",0.0,16.7,47.0,1009.5,250.1,2.1,3.6,238.3,0.04,5.4,14.7,"17:20:16",1
"17/04/13","17:40",0.0,16.3,48.2,1010.0,243.2,2.1,3.5,200.4,0.01,5.4,14.7,"17:39:52",1
"17/04/13","17:50",0.0,16.1,48.9,1009.7,253.0,1.7,3.9,234.4,0.00,5.4,14.5,"17:42:08",1
"17/04/13","18:00",0.0,15.9,49.4,1010.0,237.9,1.7,3.5,229.9,0.00,5.4,14.5,"17:53:36",1
"17/04/13","18:10",0.0,15.8,50.8,1009.5,242.6,1.2,2.8,208.7,0.01,5.7,14.4,"18:00:24",1
"17/04/13","18:20",0.0,15.5,54.1,1009.7,310.7,1.2,2.5,343.2,0.00,6.3,14.4,"18:18:48",1
"17/04/13","18:30",0.0,14.3,60.4,1009.7,332.7,1.8,2.9,341.5,0.00,6.8,14.3,"18:23:36",1
"17/04/13","18:40",0.0,13.7,63.1,1010.0,317.7,1.7,2.4,323.0,0.00,6.9,13.9,"18:31:44",1
"17/04/13","18:50",0.0,13.1,65.5,1009.7,308.9,1.5,2.5,324.3,0.00,6.8,14.0,"18:41:04",1
"17/04/13","19:00",0.0,12.6,67.8,1010.0,306.1,1.6,2.4,325.1,0.00,6.9,13.8,"18:53:52",1
"17/04/13","19:10",0.0,12.2,68.7,1010.0,308.8,1.5,2.4,331.9,0.00,6.7,13.9,"19:02:48",1
"17/04/13","19:20",0.0,12.0,70.2,1010.0,312.4,1.7,2.4,308.6,0.00,6.8,13.8,"19:13:44",1
"17/04/13","19:30",0.0,11.6,72.0,1010.0,296.3,1.7,2.8,316.6,0.00,6.8,13.5,"19:28:48",1
"17/04/13","19:40",0.0,11.3,72.9,1010.2,288.1,1.6,2.6,319.2,0.00,6.7,13.6,"19:33:44",1
"17/04/13","19:50",0.0,11.1,74.3,1010.4,305.8,2.0,3.3,331.7,0.00,6.7,13.5,"19:48:04",1
"17/04/13","20:00",0.0,11.0,74.8,1010.4,318.3,1.5,2.6,332.2,0.00,6.7,13.4,"19:50:08",1
"17/04/13","20:10",0.0,10.8,75.4,1010.4,273.0,1.5,2.4,283.5,0.00,6.7,13.1,"20:08:32",1
"17/04/13","20:20",0.0,10.8,75.4,1010.4,307.7,2.0,2.5,317.8,0.00,6.7,13.1,"20:14:44",1
"17/04/13","20:30",0.0,10.6,76.4,1010.4,315.9,1.1,2.1,313.1,0.00,6.7,12.9,"20:20:40",1
"17/04/13","20:40",0.0,10.0,78.2,1011.2,301.5,1.6,2.1,319.3,0.00,6.4,12.9,"20:39:14",1
"17/04/13","20:50",0.0,9.6,80.7,1010.9,330.7,2.1,2.6,330.7,0.00,6.5,13.0,"20:41:52",1
"17/04/13","21:00",0.0,9.4,81.7,1011.4,299.4,1.8,2.6,314.2,0.00,6.5,12.7,"20:53:20",1
"17/04/13","21:10",0.0,9.4,81.7,1011.4,291.7,1.7,2.5,312.4,0.00,6.5,12.7,"21:02:28",1
"17/04/13","21:20",0.0,9.3,81.9,1011.2,303.4,2.1,3.1,317.3,0.00,6.4,12.6,"21:14:16",1
"17/04/13","21:30",0.0,9.2,82.0,1011.6,302.4,1.8,2.7,313.9,0.00,6.3,12.4,"21:26:48",1
"17/04/13","21:40",0.0,9.0,82.7,1011.9,298.2,1.8,3.1,312.7,0.00,6.3,12.4,"21:33:44",1
"17/04/13","21:50",0.0,8.9,83.0,1011.9,283.5,1.7,2.2,297.3,0.00,6.2,12.4,"21:44:00",1
"17/04/13","22:00",0.0,8.8,83.1,1012.1,287.1,1.7,2.1,306.6,0.00,6.1,12.2,"21:58:38",1
"17/04/13","22:10",0.0,8.8,83.9,1011.9,297.8,2.2,3.7,304.1,0.00,6.3,12.4,"22:07:44",1
"17/04/13","22:20",0.0,8.7,83.5,1012.3,286.9,1.8,2.5,311.4,0.00,6.1,12.0,"22:16:40",1
"17/04/13","22:30",0.0,8.8,83.5,1012.3,299.0,2.2,5.5,331.2,0.00,6.2,11.9,"22:21:34",1
"17/04/13","22:40",0.0,8.6,83.5,1012.1,305.8,1.6,2.9,330.4,0.00,6.0,12.2,"22:31:44",1
"17/04/13","22:50",0.0,8.1,84.4,1012.6,327.1,1.8,2.8,319.6,0.00,5.7,12.0,"22:46:34",1
"17/04/13","23:00",0.0,7.6,86.3,1012.1,329.5,2.2,2.6,333.2,0.00,5.5,11.9,"22:53:06",1
"17/04/13","23:10",0.0,7.2,87.5,1012.3,308.4,1.7,2.5,321.7,0.00,5.3,11.9,"23:00:08",1
"17/04/13","23:20",0.0,7.0,88.5,1012.3,299.8,1.7,2.4,312.3,0.00,5.3,11.7,"23:14:00",1
"17/04/13","23:30",0.0,6.8,89.5,1012.3,291.4,1.6,2.1,310.9,0.00,5.2,11.6,"23:24:24",1
"17/04/13","23:40",0.0,6.9,90.1,1012.3,299.7,2.2,2.9,314.7,0.00,5.4,11.7,"23:36:32",1
"17/04/13","23:50",0.0,7.0,90.0,1012.3,300.7,2.1,2.7,313.5,0.00,5.5,11.5,"23:43:44",1
"17/04/13","24:00",0.0,6.9,89.7,1012.6,291.6,1.8,2.8,310.1,0.00,5.4,11.3,"23:53:04",1
